Location: ????????
(55.4000°N, 39.1167°E)
Time: 03:25:08
(UTC+00:00)

NOSS 3-2 (A) - Pass Details

Date: 19 May 2025
Orbit: 674 x 1530 km, 63.4° (Epoch: 29 May)

Event Time Altitude Azimuth Distance (km) Brightness Sun altitude
Rises 22:04:38 0° 310° (NW) 3,771 7.0 -14.0°
Reaches altitude 10° 22:07:04 10° 307° (NW) 2,931 6.3 -14.0°
Maximum altitude 22:14:03 62° 229° (SW) 1,396 4.1 -13.8°
Drops below altitude 10° 22:22:29 10° 152° (SSE) 3,511 6.0 -13.5°
Sets 22:25:39 0° 149° (SSE) 4,564 6.6 -13.3°
Enters shadow 22:25:43 - 149° (SSE) 4,588 6.6 -13.3°
